Location: Ladrillo (historical)
(32.8195°N, 117.2231°W)
Time: 22:54:36
(UTC+00:00)

Altair - Pass Details

Date: 04 March 2021
Orbit: 1501 x 1683 km, 47.2° (Epoch: 16 April)

Event Time Altitude Azimuth Distance (km) Brightness Sun altitude
Rises 04:47:18 0° 284° (WNW) 4,651 11.0 -38.0°
Reaches altitude 10° 04:50:45 10° 294° (WNW) 3,686 10.2 -38.7°
Maximum altitude 04:58:58 34° 356° (N) 2,364 8.5 -40.3°
Enters shadow 05:00:21 32° 12° (NNE) 2,421 8.5 -40.5°
